{"data":{"norad_id":67878,"epoch":"2026-09-19T19:31:59.852352Z","epoch_age_seconds":122561,"freshness":"FRESH","line1":"1 67878U 26034AE  26262.81388718  .00010716  00000+0  32809-3 0  9992","line2":"2 67878  53.1589  20.6587 0000656  85.3585 274.7492 15.34375662 33786","mean_motion":15.34375662,"eccentricity":6.56e-5,"inclination_deg":53.1589,"raan_deg":20.6587,"arg_perigee_deg":85.3585,"mean_anomaly_deg":274.7492,"bstar":0.00032809,"rev_number":3378,"period_min":93.849246678158,"perigee_km":462.32681496311,"apogee_km":463.22434269345,"semimajor_km":6840.9125788283,"source":"CELESTRAK","updated_at":"2026-09-20T09:00:43.694667Z"}}